Weather History for Shelton, WA

Change the Weather History Date:

Friday, October 12, 2012

  Actual Average Record
Temperature  
Mean Temperature 51 °F -  
Max Temperature 55 °F 61 °F 73 °F (1964)
Min Temperature 48 °F 43 °F 28 °F (2002)
Degree Days  
Heating Degree Days 14    
Growing Degree Days 1 (Base 50)    
Moisture  
Dew Point 51 °F    
Average Humidity 98    
Maximum Humidity 100    
Minimum Humidity 86    
Precipitation  
Precipitation 0.23 in - - ()
Sea Level Pressure  
Sea Level Pressure 29.91 in    
Wind  
Wind Speed 5 mph (SW)    
Max Wind Speed 14 mph    
Max Gust Speed -    
Visibility 4 miles    
Events Rain    
Averages and records for this station are not official NWS values.
T = Trace of Precipitation, MM = Missing Value Source: NWS Daily Summary

Daily Weather History Graph

Daily Weather History Graph

Search for Another Location

Airport:

Trip Planner

Search our weather history database for the weather conditions in past years. The results will help you decide how hot, cold, wet, or windy it might be!

Date:

Astronomy

Oct. 12, 2012 Rise Set
Actual Time 7:27 AM PDT 6:29 PM PDT
Civil Twilight 6:56 AM PDT 7:00 PM PDT
Nautical Twilight 6:21 AM PDT 7:35 PM PDT
Astronomical Twilight 5:45 AM PDT 8:10 PM PDT
Moon 4:05 AM PDT (10/12) 4:50 PM PDT (10/12)
Length of Visible Light 12h 03m
Length of Day
11h 01m
Waning Crescent, 10% of the Moon is Illuminated
Oct 12
Waning Crescent
Oct 15
New
Oct 21
First Quarter
Oct 29
Full
Nov 6
Last Quarter

Hourly Weather History & Observations

Time (PDT) Temp. Dew Point Humidity Pressure Visibility Wind Dir Wind Speed Gust Speed Precip Events Conditions
12:34 AM 48.2 °F 46.4 °F 93% 29.82 in 10.0 mi SW 8.1 mph - N/A   Overcast
12:53 AM 48.2 °F 46.4 °F 93% 29.82 in 10.0 mi SW 8.1 mph - N/A   Overcast
1:12 AM 48.2 °F 44.6 °F 87% 29.82 in 10.0 mi SW 13.8 mph - N/A   Overcast
1:53 AM 48.9 °F 45.0 °F 86% 29.83 in 10.0 mi SW 8.1 mph - N/A   Overcast
2:53 AM 48.9 °F 45.0 °F 86% 29.84 in 10.0 mi SW 6.9 mph - N/A   Overcast
3:53 AM 48.9 °F 45.0 °F 86% 29.83 in 10.0 mi SW 4.6 mph - N/A   Overcast
4:42 AM 48.2 °F 46.4 °F 93% 29.84 in 10.0 mi WSW 6.9 mph - 0.00 in Rain Light Rain
4:53 AM 48.9 °F 46.9 °F 93% 29.84 in 9.0 mi SW 5.8 mph - 0.01 in Rain Light Rain
5:53 AM 48.0 °F 48.0 °F 100% 29.85 in 8.0 mi WSW 5.8 mph - 0.02 in Rain Light Rain
6:53 AM 48.0 °F 48.0 °F 100% 29.86 in 9.0 mi West 4.6 mph - 0.00 in Rain Light Rain
7:53 AM 48.9 °F 48.0 °F 97% 29.86 in 7.0 mi WSW 5.8 mph - 0.01 in   Overcast
8:50 AM 50.0 °F 48.2 °F 94% 29.87 in 4.0 mi WSW 5.8 mph - N/A   Overcast
8:53 AM 50.0 °F 48.2 °F 94% 29.87 in 4.0 mi WSW 5.8 mph - N/A   Overcast
9:53 AM 51.1 °F 50.0 °F 96% 29.89 in 6.0 mi WSW 5.8 mph - N/A   Overcast
10:39 AM 51.8 °F 50.0 °F 94% 29.89 in 2.5 mi WSW 6.9 mph - 0.01 in   Overcast
10:49 AM 51.8 °F 51.8 °F 100% 29.89 in 4.0 mi WSW 4.6 mph - 0.01 in Rain Light Rain
10:53 AM 52.0 °F 51.1 °F 97% 29.90 in 5.0 mi WSW 6.9 mph - 0.01 in   Overcast
11:03 AM 51.8 °F 51.8 °F 100% 29.90 in 4.0 mi WSW 5.8 mph - N/A   Overcast
11:27 AM 51.8 °F 51.8 °F 100% 29.90 in 2.5 mi West 6.9 mph - N/A   Overcast
11:35 AM 51.8 °F 51.8 °F 100% 29.91 in 3.0 mi WSW 6.9 mph - N/A   Overcast
11:53 AM 53.1 °F 52.0 °F 96% 29.91 in 3.0 mi West 5.8 mph - N/A   Overcast
12:53 PM 54.0 °F 52.0 °F 93% 29.92 in 2.5 mi WSW 6.9 mph - 0.00 in   Overcast
1:35 PM 53.6 °F 53.6 °F 100% 29.90 in 5.0 mi SSW 5.8 mph - N/A   Overcast
1:53 PM 54.0 °F 53.1 °F 97% 29.91 in 6.0 mi South 4.6 mph - N/A   Overcast
2:08 PM 53.6 °F 53.6 °F 100% 29.90 in 3.0 mi SSW 3.5 mph - N/A   Overcast
2:11 PM 53.6 °F 53.6 °F 100% 29.90 in 2.5 mi SSW 4.6 mph - N/A   Overcast
2:25 PM 53.6 °F 53.6 °F 100% 29.91 in 2.0 mi SW 4.6 mph - N/A   Overcast
2:28 PM 53.6 °F 53.6 °F 100% 29.90 in 1.8 mi SW 3.5 mph - N/A   Overcast
2:36 PM 53.6 °F 53.6 °F 100% 29.91 in 1.8 mi Variable 3.5 mph - N/A   Overcast
2:51 PM 53.6 °F 53.6 °F 100% 29.90 in 1.5 mi SW 3.5 mph - 0.01 in   Overcast
2:53 PM 53.6 °F 53.6 °F 100% 29.90 in 1.5 mi Calm Calm - N/A   Overcast
3:13 PM 53.6 °F 53.6 °F 100% 29.90 in 1.5 mi SW 6.9 mph - N/A   Overcast
3:39 PM 53.6 °F 53.6 °F 100% 29.90 in 3.0 mi SSW 5.8 mph - 0.01 in   Overcast
3:53 PM 53.6 °F 53.6 °F 100% 29.90 in 2.0 mi SSW 5.8 mph - N/A   Overcast
3:57 PM 53.6 °F 53.6 °F 100% 29.90 in 1.5 mi Calm Calm - N/A   Overcast
4:53 PM 54.0 °F 54.0 °F 100% 29.91 in 1.5 mi Calm Calm - 0.03 in Rain Light Rain
5:04 PM 53.6 °F 53.6 °F 100% 29.91 in 2.5 mi SE 4.6 mph - 0.00 in Rain Light Rain
5:53 PM 53.1 °F 53.1 °F 100% 29.92 in 1.2 mi Calm Calm - 0.01 in   Overcast
6:16 PM 53.6 °F 53.6 °F 100% 29.92 in 1.5 mi SW 4.6 mph - 0.01 in   Overcast
6:28 PM 53.6 °F 53.6 °F 100% 29.91 in 2.0 mi Calm Calm - 0.01 in   Overcast
6:35 PM 53.6 °F 53.6 °F 100% 29.91 in 2.5 mi SW 3.5 mph - 0.02 in Rain Light Rain
6:45 PM 53.6 °F 53.6 °F 100% 29.91 in 3.0 mi SW 3.5 mph - 0.02 in Rain Light Rain
6:53 PM 53.6 °F 53.6 °F 100% 29.91 in 4.0 mi Calm Calm - N/A Rain Light Rain
7:30 PM 53.6 °F 51.8 °F 94% 29.93 in 2.5 mi West 4.6 mph - 0.06 in Rain Light Rain
7:40 PM 53.6 °F 51.8 °F 94% 29.93 in 4.0 mi Calm Calm - 0.07 in Rain Light Rain
7:53 PM 53.1 °F 52.0 °F 96% 29.94 in 2.5 mi WSW 3.5 mph - 0.07 in Rain Light Rain
8:07 PM 53.6 °F 51.8 °F 94% 29.94 in 3.0 mi West 5.8 mph - 0.01 in Rain Light Rain
8:30 PM 51.8 °F 51.8 °F 100% 29.94 in 2.5 mi SW 4.6 mph - 0.02 in Rain Light Rain
8:43 PM 51.8 °F 51.8 °F 100% 29.95 in 4.0 mi WSW 4.6 mph - N/A   Overcast
8:53 PM 52.0 °F 52.0 °F 100% 29.95 in 3.0 mi Calm Calm - 0.03 in   Overcast
9:01 PM 51.8 °F 51.8 °F 100% 29.95 in 2.0 mi Calm Calm - N/A Rain Light Rain
9:09 PM 51.8 °F 51.8 °F 100% 29.94 in 3.0 mi Calm Calm - 0.01 in Rain Light Rain
9:24 PM 51.8 °F 51.8 °F 100% 29.94 in 2.0 mi SE 3.5 mph - 0.01 in   Overcast
9:39 PM 51.8 °F 51.8 °F 100% 29.96 in 3.0 mi Calm Calm - 0.01 in   Overcast
9:53 PM 52.0 °F 52.0 °F 100% 29.96 in 2.0 mi Calm Calm - 0.02 in   Overcast
10:25 PM 51.8 °F 51.8 °F 100% 29.97 in 3.0 mi SSW 3.5 mph - 0.01 in Rain Light Rain
10:53 PM 52.0 °F 52.0 °F 100% 29.99 in 4.0 mi Calm Calm - 0.01 in   Overcast
11:24 PM 51.8 °F 51.8 °F 100% 29.98 in 2.5 mi Calm Calm - N/A   Overcast
11:32 PM 51.8 °F 51.8 °F 100% 29.99 in 3.0 mi WSW 3.5 mph - N/A Rain Light Rain
11:44 PM 51.8 °F 51.8 °F 100% 29.99 in 2.5 mi Calm Calm - 0.01 in   Overcast
11:53 PM 52.0 °F 52.0 °F 100% 30.00 in 2.5 mi Calm Calm - 0.01 in   Overcast